TAP16LN LPPT-LPMA

Flight info

Callsign TAP16LN
Flight time 1h 23m
Altitude 37000
Route ULVOT DCT GALPA DCT RAKUN
Aircraft A320/M-SDE3FGHIRWY/LB1

Departure

Time 2026-05-06 21:08
Airport Lisbon Humberto Delgado Airport (LPPT)

Arrival

Time 2026-05-06 22:32
Airport Cristiano Ronaldo International Airport (LPMA)
Time Latitude Longitude Altitude Speed Heading
2026-05-06 20:50 38.77028 -9.13089 334 ft 0 kts 78°
2026-05-06 20:58 38.77027 -9.13090 337 ft 1 kts 78°
2026-05-06 20:59 38.77024 -9.13110 334 ft 3 kts 82°
2026-05-06 20:59 38.77023 -9.13135 334 ft 3 kts 93°
2026-05-06 20:59 38.77025 -9.13160 337 ft 3 kts 113°
2026-05-06 20:59 38.77035 -9.13179 334 ft 3 kts 154°
2026-05-06 21:00 38.77041 -9.13182 338 ft 0 kts 168°
2026-05-06 21:02 38.77038 -9.13181 338 ft 2 kts 168°
2026-05-06 21:02 38.77007 -9.13173 338 ft 7 kts 168°
2026-05-06 21:02 38.76947 -9.13158 339 ft 11 kts 168°
2026-05-06 21:02 38.76865 -9.13136 339 ft 11 kts 168°
2026-05-06 21:03 38.76788 -9.13150 336 ft 12 kts 232°
2026-05-06 21:03 38.76766 -9.13268 341 ft 15 kts 259°
2026-05-06 21:03 38.76729 -9.13395 350 ft 16 kts 228°
2026-05-06 21:03 38.76654 -9.13495 351 ft 16 kts 253°
2026-05-06 21:04 38.76629 -9.13645 356 ft 19 kts 258°
2026-05-06 21:04 38.76600 -9.13825 353 ft 22 kts 258°
2026-05-06 21:04 38.76559 -9.14008 349 ft 17 kts 238°
2026-05-06 21:04 38.76497 -9.14142 354 ft 13 kts 266°
2026-05-06 21:05 38.76526 -9.14269 338 ft 15 kts 294°
2026-05-06 21:05 38.76540 -9.14310 334 ft 0 kts 293°
2026-05-06 21:07 38.76541 -9.14312 335 ft 2 kts 293°
2026-05-06 21:07 38.76559 -9.14366 333 ft 10 kts 294°
2026-05-06 21:07 38.76628 -9.14393 336 ft 14 kts 18°
2026-05-06 21:07 38.76863 -9.14269 345 ft 66 kts 22°
2026-05-06 21:08 38.77444 -9.13960 362 ft 113 kts 23°
2026-05-06 21:08 38.78296 -9.13501 375 ft 150 kts 20°
2026-05-06 21:08 38.79247 -9.12945 804 ft 149 kts 23°
2026-05-06 21:08 38.80181 -9.12397 1364 ft 147 kts 22°
2026-05-06 21:09 38.81102 -9.11880 1942 ft 143 kts 19°
2026-05-06 21:09 38.82031 -9.11260 2249 ft 161 kts 26°
2026-05-06 21:09 38.83045 -9.10499 2422 ft 182 kts 27°
2026-05-06 21:09 38.84199 -9.09619 2562 ft 204 kts 27°
2026-05-06 21:10 38.85485 -9.08627 2748 ft 228 kts 29°
2026-05-06 21:10 38.86902 -9.07529 3057 ft 246 kts 29°
2026-05-06 21:10 38.88226 -9.06089 3605 ft 258 kts 54°
2026-05-06 21:10 38.88789 -9.03860 4167 ft 270 kts 83°
2026-05-06 21:11 38.88579 -9.01454 4812 ft 275 kts 110°
2026-05-06 21:11 38.87558 -8.99398 5524 ft 274 kts 137°
2026-05-06 21:11 38.85936 -8.98165 6209 ft 273 kts 165°
2026-05-06 21:11 38.84058 -8.97996 6884 ft 273 kts 190°
2026-05-06 21:12 38.82312 -8.98922 7549 ft 275 kts 216°
2026-05-06 21:12 38.80959 -9.00659 8166 ft 277 kts 228°
2026-05-06 21:12 38.79683 -9.02523 8817 ft 279 kts 229°
2026-05-06 21:12 38.78396 -9.04402 9451 ft 282 kts 228°
2026-05-06 21:13 38.77088 -9.06294 10043 ft 286 kts 228°
2026-05-06 21:13 38.75735 -9.08246 10279 ft 302 kts 228°
2026-05-06 21:13 38.74290 -9.10318 10440 ft 321 kts 229°
2026-05-06 21:13 38.72781 -9.12477 10803 ft 328 kts 228°
2026-05-06 21:14 38.71247 -9.14664 11310 ft 332 kts 228°
2026-05-06 21:14 38.69703 -9.16867 11851 ft 334 kts 229°
2026-05-06 21:14 38.68154 -9.19082 12400 ft 334 kts 229°
2026-05-06 21:14 38.66617 -9.21275 12934 ft 336 kts 229°
2026-05-06 21:15 38.65047 -9.23511 13424 ft 339 kts 229°
2026-05-06 21:15 38.63465 -9.25762 13896 ft 340 kts 229°
2026-05-06 21:15 38.61887 -9.28002 14397 ft 340 kts 228°
2026-05-06 21:15 38.60297 -9.30261 14823 ft 342 kts 229°
2026-05-06 21:16 38.58702 -9.32528 15247 ft 343 kts 229°
2026-05-06 21:16 38.57104 -9.34798 15722 ft 343 kts 229°
2026-05-06 21:16 38.55502 -9.37073 16156 ft 346 kts 229°
2026-05-06 21:16 38.53889 -9.39362 16539 ft 349 kts 228°
2026-05-06 21:17 38.52257 -9.41673 16998 ft 350 kts 228°
2026-05-06 21:17 38.50619 -9.43990 17458 ft 351 kts 228°
2026-05-06 21:17 38.48982 -9.46304 17906 ft 352 kts 229°
2026-05-06 21:17 38.47328 -9.48641 18292 ft 355 kts 229°
2026-05-06 21:18 38.45674 -9.50981 18676 ft 355 kts 229°
2026-05-06 21:18 38.44018 -9.53322 19050 ft 357 kts 229°
2026-05-06 21:18 38.42346 -9.55678 19380 ft 359 kts 229°
2026-05-06 21:18 38.40662 -9.58049 19743 ft 361 kts 229°
2026-05-06 21:19 38.38979 -9.60421 20108 ft 361 kts 229°
2026-05-06 21:19 38.37289 -9.62804 20408 ft 364 kts 229°
2026-05-06 21:19 38.35579 -9.65207 20747 ft 366 kts 229°
2026-05-06 21:19 38.33867 -9.67609 21099 ft 367 kts 229°
2026-05-06 21:20 38.32168 -9.69987 21442 ft 368 kts 228°
2026-05-06 21:20 38.30440 -9.72409 21710 ft 371 kts 229°
2026-05-06 21:20 38.28796 -9.74949 22034 ft 372 kts 239°
2026-05-06 21:20 38.27513 -9.77808 22362 ft 372 kts 237°
2026-05-06 21:21 38.25931 -9.80425 22650 ft 375 kts 229°
2026-05-06 21:21 38.24112 -9.82813 22905 ft 377 kts 225°
2026-05-06 21:21 38.22201 -9.85109 23212 ft 378 kts 225°
2026-05-06 21:21 38.20288 -9.87420 23458 ft 380 kts 226°
2026-05-06 21:22 38.18410 -9.89789 23703 ft 381 kts 227°
2026-05-06 21:22 38.16574 -9.92221 23947 ft 382 kts 228°
2026-05-06 21:22 38.14792 -9.94677 24170 ft 383 kts 229°
2026-05-06 21:22 38.13003 -9.97195 24380 ft 384 kts 230°
2026-05-06 21:23 38.11218 -9.99724 24580 ft 385 kts 230°
2026-05-06 21:23 38.09425 -10.02256 24781 ft 386 kts 229°
2026-05-06 21:23 38.07617 -10.04789 25006 ft 387 kts 229°
2026-05-06 21:23 38.05802 -10.07323 25209 ft 389 kts 229°
2026-05-06 21:24 38.03978 -10.09858 25414 ft 389 kts 229°
2026-05-06 21:24 38.02144 -10.12394 25623 ft 391 kts 229°
2026-05-06 21:24 38.00296 -10.14937 25830 ft 392 kts 229°
2026-05-06 21:24 37.98445 -10.17484 26034 ft 393 kts 229°
2026-05-06 21:25 37.96587 -10.20048 26226 ft 395 kts 229°
2026-05-06 21:25 37.94722 -10.22620 26385 ft 397 kts 230°
2026-05-06 21:25 37.92851 -10.25202 26571 ft 399 kts 230°
2026-05-06 21:25 37.90972 -10.27796 26734 ft 400 kts 230°
2026-05-06 21:26 37.89089 -10.30396 26898 ft 402 kts 230°
2026-05-06 21:26 37.87197 -10.33006 27073 ft 402 kts 230°
2026-05-06 21:26 37.85305 -10.35612 27222 ft 403 kts 230°
2026-05-06 21:26 37.83406 -10.38222 27364 ft 403 kts 230°
2026-05-06 21:27 37.81504 -10.40833 27515 ft 405 kts 230°
2026-05-06 21:27 37.79591 -10.43453 27668 ft 405 kts 230°
2026-05-06 21:27 37.77701 -10.46041 27808 ft 407 kts 230°
2026-05-06 21:27 37.75778 -10.48672 27950 ft 408 kts 230°
2026-05-06 21:28 37.73848 -10.51308 28125 ft 410 kts 230°
2026-05-06 21:28 37.71909 -10.53958 28291 ft 411 kts 230°
2026-05-06 21:28 37.69968 -10.56612 28446 ft 412 kts 231°
2026-05-06 21:28 37.68018 -10.59276 28571 ft 414 kts 232°
2026-05-06 21:29 37.66057 -10.61955 28727 ft 416 kts 232°
2026-05-06 21:29 37.64090 -10.64637 28858 ft 417 kts 232°
2026-05-06 21:29 37.62110 -10.67330 28989 ft 419 kts 232°
2026-05-06 21:29 37.60125 -10.70027 29138 ft 420 kts 232°
2026-05-06 21:30 37.58134 -10.72726 29282 ft 421 kts 232°
2026-05-06 21:30 37.56133 -10.75433 29431 ft 423 kts 232°
2026-05-06 21:30 37.54125 -10.78154 29572 ft 424 kts 232°
2026-05-06 21:30 37.52116 -10.80878 29720 ft 425 kts 232°
2026-05-06 21:31 37.50103 -10.83607 29862 ft 425 kts 232°
2026-05-06 21:31 37.48099 -10.86332 30004 ft 424 kts 232°
2026-05-06 21:31 37.46100 -10.89049 30141 ft 423 kts 232°
2026-05-06 21:32 37.42116 -10.94427 30319 ft 422 kts 233°
2026-05-06 21:32 37.38107 -10.99823 30557 ft 423 kts 233°
2026-05-06 21:32 37.36094 -11.02528 30681 ft 424 kts 233°
2026-05-06 21:33 37.34079 -11.05234 30802 ft 423 kts 233°
2026-05-06 21:33 37.32069 -11.07934 30924 ft 424 kts 233°
2026-05-06 21:33 37.30052 -11.10639 31052 ft 424 kts 233°
2026-05-06 21:33 37.28039 -11.13343 31170 ft 423 kts 233°
2026-05-06 21:34 37.26024 -11.16049 31294 ft 424 kts 233°
2026-05-06 21:34 37.24014 -11.18759 31424 ft 424 kts 233°
2026-05-06 21:34 37.22007 -11.21471 31549 ft 424 kts 233°
2026-05-06 21:34 37.19996 -11.24178 31677 ft 424 kts 233°
2026-05-06 21:35 37.17975 -11.26883 31803 ft 425 kts 233°
2026-05-06 21:35 37.15952 -11.29580 31893 ft 423 kts 233°
2026-05-06 21:35 37.13932 -11.32267 31999 ft 422 kts 233°
2026-05-06 21:35 37.11944 -11.34910 32117 ft 422 kts 233°
2026-05-06 21:36 37.09934 -11.37582 32248 ft 421 kts 233°
2026-05-06 21:36 37.07927 -11.40254 32377 ft 420 kts 233°
2026-05-06 21:36 37.05931 -11.42914 32506 ft 418 kts 234°
2026-05-06 21:36 37.03938 -11.45572 32636 ft 418 kts 233°
2026-05-06 21:37 37.01944 -11.48219 32766 ft 417 kts 233°
2026-05-06 21:37 36.99952 -11.50858 32898 ft 417 kts 233°
2026-05-06 21:37 36.97965 -11.53489 33030 ft 416 kts 233°
2026-05-06 21:37 36.95979 -11.56119 33163 ft 415 kts 234°
2026-05-06 21:38 36.94002 -11.58737 33298 ft 414 kts 234°
2026-05-06 21:38 36.92024 -11.61352 33437 ft 412 kts 234°
2026-05-06 21:38 36.90054 -11.63954 33551 ft 411 kts 233°
2026-05-06 21:38 36.88089 -11.66546 33710 ft 410 kts 233°
2026-05-06 21:39 36.86130 -11.69130 33824 ft 409 kts 234°
2026-05-06 21:39 36.84176 -11.71709 33957 ft 407 kts 234°
2026-05-06 21:39 36.82254 -11.74241 34099 ft 406 kts 234°
2026-05-06 21:39 36.80315 -11.76786 34205 ft 404 kts 233°
2026-05-06 21:40 36.78375 -11.79326 34316 ft 403 kts 233°
2026-05-06 21:40 36.76447 -11.81852 34437 ft 401 kts 233°
2026-05-06 21:40 36.74529 -11.84371 34549 ft 399 kts 234°
2026-05-06 21:40 36.72623 -11.86875 34670 ft 397 kts 233°
2026-05-06 21:41 36.70724 -11.89367 34788 ft 396 kts 233°
2026-05-06 21:41 36.68831 -11.91846 34913 ft 394 kts 233°
2026-05-06 21:41 36.66946 -11.94309 35032 ft 392 kts 233°
2026-05-06 21:41 36.65065 -11.96764 35152 ft 390 kts 233°
2026-05-06 21:42 36.63198 -11.99204 35270 ft 388 kts 233°
2026-05-06 21:42 36.61340 -12.01632 35366 ft 387 kts 234°
2026-05-06 21:42 36.59483 -12.04054 35488 ft 385 kts 233°
2026-05-06 21:42 36.58258 -12.05651 35548 ft 384 kts 234°
2026-05-06 21:43 36.55822 -12.08830 35716 ft 381 kts 234°
2026-05-06 21:43 36.53993 -12.11209 35833 ft 379 kts 234°
2026-05-06 21:43 36.52171 -12.13574 35955 ft 377 kts 234°
2026-05-06 21:43 36.50970 -12.15132 36040 ft 376 kts 234°
2026-05-06 21:44 36.49166 -12.17473 36162 ft 374 kts 234°
2026-05-06 21:44 36.47370 -12.19804 36290 ft 372 kts 234°
2026-05-06 21:44 36.45585 -12.22121 36416 ft 370 kts 234°
2026-05-06 21:44 36.43807 -12.24429 36543 ft 369 kts 234°
2026-05-06 21:45 36.42013 -12.26764 36182 ft 382 kts 234°
2026-05-06 21:45 36.40160 -12.29188 35978 ft 390 kts 234°
2026-05-06 21:45 36.38273 -12.31635 35840 ft 396 kts 234°
2026-05-06 21:45 36.36346 -12.34126 35649 ft 405 kts 234°
2026-05-06 21:46 36.34370 -12.36671 35221 ft 414 kts 234°
2026-05-06 21:46 36.32333 -12.39309 34047 ft 436 kts 234°
2026-05-06 21:46 36.30193 -12.42092 33364 ft 454 kts 234°
2026-05-06 21:46 36.27983 -12.44948 33122 ft 465 kts 234°
2026-05-06 21:47 36.23418 -12.50778 33065 ft 475 kts 233°
2026-05-06 21:47 36.18799 -12.56662 33062 ft 477 kts 233°
2026-05-06 21:48 36.14187 -12.62576 33066 ft 477 kts 234°
2026-05-06 21:48 36.09582 -12.68486 33067 ft 477 kts 234°
2026-05-06 21:49 36.04962 -12.74385 33060 ft 477 kts 233°
2026-05-06 21:49 36.00330 -12.80273 33081 ft 479 kts 233°
2026-05-06 21:50 35.95710 -12.86145 33060 ft 480 kts 233°
2026-05-06 21:50 35.91061 -12.92057 33079 ft 480 kts 233°
2026-05-06 21:51 35.86411 -12.97967 33069 ft 480 kts 233°
2026-05-06 21:51 35.81758 -13.03871 33080 ft 480 kts 233°
2026-05-06 21:52 35.77095 -13.09751 33070 ft 480 kts 233°
2026-05-06 21:52 35.72421 -13.15625 33073 ft 480 kts 233°
2026-05-06 21:53 35.67764 -13.21502 33082 ft 480 kts 233°
2026-05-06 21:53 35.63094 -13.27373 33081 ft 480 kts 233°
2026-05-06 21:54 35.58429 -13.33236 33082 ft 480 kts 233°
2026-05-06 21:54 35.53758 -13.39089 33081 ft 480 kts 233°
2026-05-06 21:55 35.49081 -13.44935 33073 ft 480 kts 233°
2026-05-06 21:55 35.44429 -13.50734 33040 ft 480 kts 233°
2026-05-06 21:56 35.39710 -13.56617 33052 ft 481 kts 233°
2026-05-06 21:56 35.35036 -13.62425 33062 ft 482 kts 233°
2026-05-06 21:57 35.30321 -13.68271 33072 ft 483 kts 233°
2026-05-06 21:57 35.25601 -13.74132 33078 ft 483 kts 233°
2026-05-06 21:58 35.20873 -13.79980 33086 ft 483 kts 233°
2026-05-06 21:58 35.16143 -13.85821 33064 ft 483 kts 233°
2026-05-06 21:59 35.11412 -13.91653 33080 ft 483 kts 233°
2026-05-06 21:59 35.06676 -13.97478 33085 ft 483 kts 233°
2026-05-06 22:00 35.01968 -14.03262 33090 ft 483 kts 233°
2026-05-06 22:00 34.97229 -14.09076 33098 ft 483 kts 233°
2026-05-06 22:01 34.92489 -14.14888 33101 ft 483 kts 233°
2026-05-06 22:01 34.87743 -14.20688 33080 ft 484 kts 233°
2026-05-06 22:02 34.82988 -14.26488 33095 ft 483 kts 233°
2026-05-06 22:02 34.78246 -14.32269 33104 ft 482 kts 233°
2026-05-06 22:03 34.73501 -14.38029 33111 ft 482 kts 233°
2026-05-06 22:03 34.68753 -14.43773 33112 ft 481 kts 233°
2026-05-06 22:04 34.64018 -14.49520 33110 ft 481 kts 233°
2026-05-06 22:04 34.59279 -14.55261 33095 ft 481 kts 233°
2026-05-06 22:05 34.54534 -14.61001 33078 ft 482 kts 232°
2026-05-06 22:05 34.49779 -14.66725 33098 ft 481 kts 232°
2026-05-06 22:06 34.45026 -14.72441 33108 ft 481 kts 232°
2026-05-06 22:06 34.40279 -14.78148 33109 ft 481 kts 232°
2026-05-06 22:07 34.35530 -14.83852 33111 ft 481 kts 232°
2026-05-06 22:07 34.30804 -14.89511 33106 ft 482 kts 232°
2026-05-06 22:08 34.26028 -14.95211 33094 ft 482 kts 232°
2026-05-06 22:08 34.21263 -15.00895 33118 ft 481 kts 232°
2026-05-06 22:09 34.16493 -15.06576 33110 ft 481 kts 232°
2026-05-06 22:09 34.11728 -15.12251 33117 ft 481 kts 232°
2026-05-06 22:10 34.06954 -15.17916 33113 ft 481 kts 232°
2026-05-06 22:10 34.02176 -15.23578 33098 ft 481 kts 232°
2026-05-06 22:11 33.97391 -15.29244 32776 ft 479 kts 231°
2026-05-06 22:11 33.95029 -15.32027 32192 ft 472 kts 231°
2026-05-06 22:11 33.92684 -15.34787 31923 ft 472 kts 231°
2026-05-06 22:12 33.90337 -15.37553 31675 ft 472 kts 231°
2026-05-06 22:12 33.87987 -15.40324 31426 ft 473 kts 231°
2026-05-06 22:12 33.85670 -15.43059 31183 ft 473 kts 231°
2026-05-06 22:12 33.83286 -15.45872 30935 ft 474 kts 231°
2026-05-06 22:13 33.80963 -15.48614 30693 ft 474 kts 231°
2026-05-06 22:13 33.78605 -15.51390 30458 ft 475 kts 231°
2026-05-06 22:13 33.76241 -15.54167 30088 ft 476 kts 231°
2026-05-06 22:13 33.73872 -15.56948 29464 ft 476 kts 231°
2026-05-06 22:14 33.71498 -15.59732 28921 ft 477 kts 230°
2026-05-06 22:14 33.69131 -15.62503 28355 ft 474 kts 230°
2026-05-06 22:14 33.66766 -15.65268 27819 ft 470 kts 230°
2026-05-06 22:14 33.64434 -15.67991 27295 ft 466 kts 230°
2026-05-06 22:15 33.62119 -15.70694 26780 ft 462 kts 230°
2026-05-06 22:15 33.59824 -15.73377 26257 ft 459 kts 230°
2026-05-06 22:15 33.57544 -15.76039 25732 ft 456 kts 230°
2026-05-06 22:15 33.55279 -15.78679 25188 ft 453 kts 229°
2026-05-06 22:16 33.53027 -15.81301 24637 ft 449 kts 229°
2026-05-06 22:16 33.50795 -15.83900 24079 ft 446 kts 229°
2026-05-06 22:16 33.48575 -15.86482 23475 ft 443 kts 229°
2026-05-06 22:16 33.46369 -15.89041 22891 ft 440 kts 229°
2026-05-06 22:17 33.44179 -15.91579 22334 ft 437 kts 229°
2026-05-06 22:17 33.42009 -15.94097 21779 ft 434 kts 229°
2026-05-06 22:17 33.39848 -15.96605 21244 ft 431 kts 229°
2026-05-06 22:17 33.37704 -15.99092 20706 ft 427 kts 228°
2026-05-06 22:18 33.35606 -16.01520 20176 ft 423 kts 228°
2026-05-06 22:18 33.33494 -16.03961 19651 ft 420 kts 228°
2026-05-06 22:18 33.31403 -16.06379 19132 ft 417 kts 228°
2026-05-06 22:18 33.29324 -16.08780 18614 ft 414 kts 228°
2026-05-06 22:19 33.27260 -16.11166 18063 ft 411 kts 228°
2026-05-06 22:19 33.25210 -16.13536 17563 ft 408 kts 228°
2026-05-06 22:19 33.23177 -16.15883 17069 ft 405 kts 227°
2026-05-06 22:19 33.21157 -16.18207 16579 ft 401 kts 227°
2026-05-06 22:20 33.19151 -16.20512 16097 ft 398 kts 227°
2026-05-06 22:20 33.17164 -16.22796 15610 ft 395 kts 227°
2026-05-06 22:20 33.15196 -16.25058 15146 ft 391 kts 227°
2026-05-06 22:20 33.13238 -16.27306 14668 ft 388 kts 227°
2026-05-06 22:21 33.11296 -16.29533 14207 ft 385 kts 227°
2026-05-06 22:21 33.09400 -16.31710 13721 ft 382 kts 227°
2026-05-06 22:21 33.07494 -16.33899 13240 ft 379 kts 227°
2026-05-06 22:21 33.05604 -16.36075 12766 ft 375 kts 227°
2026-05-06 22:22 33.03737 -16.38224 12302 ft 372 kts 227°
2026-05-06 22:22 33.01883 -16.40352 11831 ft 369 kts 226°
2026-05-06 22:22 33.00042 -16.42460 11363 ft 366 kts 226°
2026-05-06 22:22 32.98215 -16.44551 10886 ft 363 kts 226°
2026-05-06 22:23 32.96399 -16.46620 10408 ft 360 kts 226°
2026-05-06 22:23 32.94596 -16.48669 9943 ft 356 kts 226°
2026-05-06 22:23 32.92845 -16.50659 9771 ft 338 kts 226°
2026-05-06 22:23 32.91183 -16.52547 9632 ft 320 kts 226°
2026-05-06 22:24 32.89635 -16.54302 9453 ft 296 kts 227°
2026-05-06 22:24 32.88175 -16.55960 8924 ft 286 kts 226°
2026-05-06 22:24 32.86759 -16.57579 8515 ft 285 kts 227°
2026-05-06 22:24 32.85339 -16.59205 8165 ft 282 kts 226°
2026-05-06 22:25 32.83891 -16.60815 7652 ft 288 kts 225°
2026-05-06 22:25 32.82382 -16.62377 7293 ft 285 kts 218°
2026-05-06 22:25 32.80670 -16.63527 6962 ft 283 kts 205°
2026-05-06 22:25 32.78801 -16.64287 6543 ft 283 kts 201°
2026-05-06 22:26 32.76942 -16.65026 6109 ft 281 kts 201°
2026-05-06 22:26 32.75138 -16.65753 5907 ft 271 kts 200°
2026-05-06 22:26 32.73380 -16.66465 5662 ft 263 kts 201°
2026-05-06 22:26 32.71675 -16.67159 5474 ft 253 kts 201°
2026-05-06 22:27 32.70045 -16.67823 5310 ft 245 kts 200°
2026-05-06 22:27 32.68404 -16.68493 4694 ft 256 kts 201°
2026-05-06 22:27 32.66674 -16.69200 4106 ft 266 kts 200°
2026-05-06 22:27 32.64946 -16.69902 3661 ft 257 kts 200°
2026-05-06 22:28 32.63337 -16.70657 3312 ft 243 kts 210°
2026-05-06 22:28 32.62036 -16.71917 2702 ft 242 kts 232°
2026-05-06 22:28 32.61424 -16.72998 2395 ft 236 kts 245°
2026-05-06 22:28 32.60925 -16.74767 2192 ft 217 kts 263°
2026-05-06 22:29 32.60883 -16.76467 2090 ft 196 kts 280°
2026-05-06 22:29 32.61356 -16.78349 1923 ft 170 kts 303°
2026-05-06 22:29 32.62080 -16.79391 1712 ft 161 kts 321°
2026-05-06 22:29 32.62691 -16.79883 1540 ft 159 kts 333°
2026-05-06 22:30 32.63722 -16.80293 1315 ft 154 kts 352°
2026-05-06 22:30 32.64797 -16.80341 1111 ft 155 kts
2026-05-06 22:30 32.65877 -16.80339 899 ft 157 kts
2026-05-06 22:30 32.66953 -16.80160 679 ft 156 kts 16°
2026-05-06 22:31 32.67894 -16.79544 433 ft 151 kts 37°
2026-05-06 22:31 32.68648 -16.78760 306 ft 140 kts 43°
2026-05-06 22:31 32.69329 -16.77980 177 ft 125 kts 41°
2026-05-06 22:31 32.69843 -16.77383 207 ft 74 kts 45°
2026-05-06 22:32 32.69974 -16.77206 204 ft 15 kts 86°
2026-05-06 22:32 32.69940 -16.77169 203 ft 6 kts 162°
2026-05-06 22:32 32.69855 -16.77173 185 ft 21 kts 202°
2026-05-06 22:32 32.69758 -16.77280 183 ft 19 kts 226°
2026-05-06 22:33 32.69667 -16.77393 181 ft 19 kts 227°
2026-05-06 22:33 32.69574 -16.77505 179 ft 20 kts 226°
2026-05-06 22:33 32.69479 -16.77623 176 ft 19 kts 225°
2026-05-06 22:33 32.69402 -16.77718 174 ft 11 kts 226°
2026-05-06 22:34 32.69358 -16.77715 173 ft 6 kts 143°
2026-05-06 22:34 32.69341 -16.77698 173 ft 1 kts 140°
2026-05-06 22:34 32.69339 -16.77696 173 ft 0 kts 140°